AirNav   Pilot Hours Calculator
 
 673 users online  

AK12 Flying Crown Airport
Anchorage, Alaska, USA

GOING TO ANCHORAGE?


FAA INFORMATION EFFECTIVE 07 NOVEMBER 2019

Location

FAA Identifier: AK12
Lat/Long: 61-06-23.7600N 149-51-51.3700W
61-06.396000N 149-51.856167W
61.1066000,-149.8642694
(estimated)
Elevation: 150 ft. / 46 m (estimated)
Variation: 25E (1985)
From city: 6 miles S of ANCHORAGE, AK
Time zone: UTC -9 (UTC -8 during Daylight Saving Time)
Zip code: 99515

Airport Operations

Airport use: Private use. Permission required prior to landing
Activation date: 03/1990
Control tower: no
ARTCC: ANCHORAGE CENTER
FSS: KENAI FLIGHT SERVICE STATION [907-283-7211]
Attendance: UNATNDD
Wind indicator: yes
Segmented circle: no

Airport Communications

CTAF: 122.9
WX ASOS at ANC (6 nm NW): PHONE 907-271-5278
WX ASOS at LHD (6 nm NW): PHONE 907-245-1618
WX ASOS at MRI (6 nm N): 124.25 (907-271-5277)
WX ASOS at FRN (11 nm NE): 125.0 (907-384-0132)

Nearby radio navigation aids

VOR radial/distance  VOR name  Freq  Var
TEDr125/4.6ANCHORAGE VOR/DME113.1518E
BGQr155/27.9BIG LAKE VORTAC112.5019E

 
NDB name  Hdg/Dist  Freq  Var  ID
CAMPBELL LAKE110/6.633816ECMQ -.-. -- --.-

Airport Services

Runway Information

Runway 13/31

Dimensions: 1078 x 50 ft. / 329 x 15 m
Surface: turf, in poor condition
RUNWAY 13  RUNWAY 31
Traffic pattern: leftright
Displaced threshold: 30 ft.798 ft.
Obstructions: trees, 20:1 slope to cleartrees, 20:1 slope to clear

Airport Ownership and Management from official FAA records

Ownership: Privately-owned
Owner: FLYING CROWN/OCEANVIEW NORTH
910 HARBOR CIRCLE
ANCHORAGE, AK 99515
Phone 907-245-1932
Manager: FLYING CROWN/OCEANVIEW NORTH
910 HARBOR CIRCLE
ANCHORAGE, AK 99515
Phone 907-245-1932

Airport Operational Statistics

Aircraft based on the field: 27
Single engine airplanes: 27
    
Aircraft operations: avg 59/week
97% local general aviation
3% transient general aviation

Additional Remarks

RY CONDITIONS UNMONITORED; VISUAL INSPECTION RECOMMENDED PRIOR TO USE. WATCH FOR PEDESTRIANS. MULTIPLE SPRINKLER AND EQUIPMENT ON OR NEAR RY. AND HILL NEAR END OF RYS NOT MAINTAINED IN WINTER.
ANCHORAGEWX CAMERA AVBL ON INTERNET AT HTTP://AVCAMS.FAA.GOV
RAILROAD RUNS PARALLEL TO RY, FREQUENT TRAIN TRAFFIC. OPNS NOT RCMDD DURING TRAIN TRAFFIC.

Instrument Procedures

There are no published instrument procedures at AK12.

Some nearby airports with instrument procedures:

PANC - Ted Stevens Anchorage International Airport (6 nm NW)
PAMR - Merrill Field Airport (6 nm N)
PAED - Elmendorf Air Force Base (9 nm N)
PAFR - Bryant Army Airfield Heliport (11 nm NE)
PAGQ - Big Lake Airport (26 nm N)
 
Loc | Ops | Rwys | IFR | FBO | Links
Com | Nav | Svcs | Stats | Notes

Crowley
 
Area around AK12 (Flying Crown Airport)
 
Road maps at: MapQuest Bing Google
 
Aerial photo
WARNING: Photo may not be current or correct
Aerial photo of AK12 (Flying Crown Airport)
Photo by Mike Harlow
Taken in August 2011

Do you have a better or more recent aerial photo of Flying Crown Airport that you would like to share? If so, please send us your photo.

 
Sectional chart

 
Airport distance calculator
Flying to Flying Crown Airport? Find the distance to fly.

From to AK12

Sunrise and sunset
Times for 20-Nov-2019
 Local
(UTC-9)
 Zulu
(UTC)
Morning civil twilight08:2617:26
Sunrise09:1918:19
Sunset16:1101:11
Evening civil twilight17:0402:04

Current date and time
Zulu (UTC)  21-Nov-2019 05:25:50
Local (UTC-9)  20-Nov-2019 20:25:50
 
METAR
PALH 
5nm NW 
210453Z 17010G18KT 10SM SCT100 07/01 A2914 RMK AO2 SLP870 T00670006
PANC 
6nm NW 
210453Z 16015G26KT 10SM FEW075 BKN110 OVC190 08/02 A2913 RMK AO2 PK WND 14029/0358 SLP864 T00830017
PAMR 
7nm N 
210453Z 17011G17KT 10SM SCT120 08/M02 A2913 RMK AO2 SLP866 T00831017
PAED 
9nm N 
210456Z 17010KT 10SM SCT120 07/M01 A2913 RMK AO2A SLP861 T00741006 $
PAFR 
11nm NE 
210458Z AUTO 14013G21KT 10SM FEW080 BKN130 BKN150 08/00 A2909 RMK AO2 SLP857 T00781003 $
TAF
PANC 
6nm NW 
210304Z 2103/2206 15015G25KT P6SM VCSH SCT040 BKN060 BKN100 FM210500 15015G25KT P6SM -SHRA SCT025 OVC040 FM210800 17011G19KT P6SM VCSH SCT030 OVC050 FM211800 32007KT P6SM VCSH SCT040 OVC060 WS020/14035KT
PAED 
9nm N 
210306Z 2103/2209 19009KT 9999 VCSH SCT020 BKN040 610409 530002 QNH2911INS TEMPO 2103/2106 8000 -RA SCT020 BKN050 BECMG 2106/2107 VRB06KT 8000 -RA FEW010 OVC020 620307 530002 QNH2914INS BECMG 2111/2112 VRB06KT 9999 NSW SCT020 BKN065 610654 530002 QNH2912INS BECMG 2118/2119 12012G18KT 9999 SCT030 BKN060 610609 530003 QNH2879INS BECMG 2203/2204 12009KT 8000 -RA BKN020 OVC070 620209 530002 QNH2859INS TX07/2103Z TNM03/2111Z
NOTAMs
Click for the latest NOTAMs
NOTAMs are issued by the DoD/FAA and will open in a separate window not controlled by AirNav.

 

 
 

Would you like to see your business listed on this page?

 If your business provides an interesting product or service to pilots, flight crews, aircraft, or users of the Flying Crown Airport, you should consider listing it here.  To start the listing process, click on the button below
 
Add a business
 

Other Pages about Flying Crown Airport

Update a link
 
Copyright © AirNav, LLC. All rights reserved. Privacy Policy  Contact